Wind_Speed
17 16 6 10 15 12 10 6 5 7 8 1 3 8 4 10 8 10 15 16 17 17 19 19 11 5 6 7 8 9 11 15 14 11 12 13 13 13 12 12 10 8 10 9
18 16 14 19 19 16 8 3 6 10 5 7 9 3 7 13 6 11 12 19 16 19 19 18 19 10 10 8 9 9 11 11 14 16 18 18 18 11 12 11 10 9 9 8
20 17 15 18 13 7 2 2 9 4 1 1 4 8 14 11 15 13 13 17 15 13 15 11 7 11 10 11 10 9 9 10 14 19 19 20 20 11 6 3 7 8 9 8
21 17 25 15 10 10 11 12 9 5 1 13 9 5 5 15 18 6 8 12 11 10 12 5 2 11 8 9 12 8 7 12 18 20 21 20 21 18 8 6 7 9 10 10
25 26 22 18 11 14 8 11 9 7 3 6 10 5 20 17 17 9 12 15 13 13 11 7 5 8 9 8 7 10 8 9 14 16 16 18 18 17 15 9 8 10 11 12
24 22 23 20 14 21 11 8 6 3 3 3 11 6 17 16 9 14 11 14 13 14 10 12 11 12 14 12 9 9 12 15 17 18 19 18 17 15 14 12 11 10 12 14
27 27 27 23 21 14 13 8 6 8 10 13 7 5 24 28 14 12 8 8 8 9 13 12 13 16 16 15 13 10 10 14 18 19 19 19 20 19 16 17 15 14 14 16
26 29 27 25 20 12 8 9 14 15 9 10 10 10 23 10 11 12 13 11 9 9 11 8 10 18 23 12 17 17 14 19 20 22 22 21 20 21 21 19 20 21 22 20
23 24 19 21 15 18 12 9 12 13 11 13 12 19 18 18 11 14 12 13 15 13 6 6 12 9 12 15 20 27 23 23 21 24 24 24 25 25 24 24 24 25 26 27
17 25 23 22 26 23 18 9 10 4 9 13 16 15 24 30 16 13 12 11 12 11 12 11 12 15 20 20 18 16 23 24 25 24 24 25 27 28 28 28 29 30 31 33
20 21 21 25 25 18 16 14 14 9 9 11 9 19 24 7 13 18 17 15 16 16 16 16 14 18 21 22 23 24 28 28 31 30 28 29 29 29 30 30 32 32 34 38
22 23 20 19 17 15 16 13 12 9 17 18 12 23 17 13 16 25 25 22 22 22 23 23 24 24 23 27 28 28 25 27 31 32 31 33 31 28 31 31 33 36 38 40
30 22 16 22 17 23 20 19 15 23 7 15 14 23 26 21 26 28 35 32 24 25 29 31 28 28 28 30 35 28 26 30 33 34 34 32 31 32 31 32 33 36 39 41
36 19 14 20 19 16 18 20 16 9 10 11 20 5 15 20 24 28 30 30 28 30 35 27 30 31 34 34 36 31 30 37 37 35 33 32 32 33 35 36 37 39 41 39
42 22 18 25 17 28 32 13 13 10 12 15 12 15 27 25 29 25 25 25 27 30 32 35 35 36 36 33 33 38 40 41 39 35 33 32 33 35 37 38 40 42 43 42
39 16 19 10 10 9 7 13 12 11 11 15 14 19 22 21 23 21 21 23 25 26 29 31 34 35 33 35 38 41 44 41 37 35 34 34 35 36 37 40 42 44 45 44
30 15 20 23 15 13 12 15 14 15 18 14 16 22 25 22 22 22 21 22 23 25 27 32 35 38 41 42 39 38 37 35 35 36 35 35 36 37 39 41 42 42 43 44
33 17 13 16 18 18 23 23 25 24 24 22 21 22 23 24 24 25 25 24 24 25 27 29 30 33 35 36 37 35 34 34 35 36 36 36 37 38 38 37 37 36 37 39
25 23 18 22 16 17 23 27 28 26 24 22 26 27 26 26 27 28 26 26 28 28 29 31 32 33 32 33 34 34 33 34 35 35 35 36 37 37 36 37 37 37 39 40
25 24 23 24 18 23 20 24 20 21 22 32 29 27 25 26 29 31 24 28 30 31 31 31 32 33 31 31 33 33 33 34 34 35 35 36 36 36 37 38 37 39 38 37
25 25 23 29 19 23 19 24 28 26 23 28 29 27 27 28 29 31 30 30 31 32 32 32 32 31 31 31 32 33 33 33 34 34 35 35 36 37 38 37 37 36 36 36
26 25 19 26 29 30 26 26 26 27 27 27 27 27 28 28 29 30 30 30 30 31 32 31 31 29 30 31 32 33 33 34 35 35 35 37 38 36 37 36 36 36 36 36
26 23 32 32 14 23 26 27 29 28 28 29 28 28 28 29 30 30 29 30 32 33 31 31 30 30 31 32 32 33 34 34 34 35 36 37 37 38 38 36 35 36 35 34
36 34 35 35 30 30 31 33 31 28 27 26 26 27 28 30 30 30 31 32 32 32 31 30 30 31 32 33 33 34 34 34 34 35 36 37 37 37 37 37 35 34 35 36
29 36 37 37 32 31 31 29 29 29 28 28 27 29 31 32 32 32 31 32 31 31 30 31 32 33 33 34 34 34 33 34 35 35 36 36 36 36 36 37 38 37 37 37
21 24 22 29 29 29 27 28 29 30 30 29 29 32 33 34 34 34 32 30 30 30 30 32 33 34 35 35 34 33 34 35 35 36 36 37 37 37 37 37 39 39 38 36
Wind_Direction
201 180 170 199 219 203 192 199 270 253 237 75 186 277 346 314 350 339 348 13 12 5 6 351 318 340 28 20 28 30 24 21 15 40 35 27 37 35 26 29 32 35 48 46
203 208 194 222 217 219 198 247 242 273 230 117 284 235 235 286 314 317 322 353 2 360 5 31 83 78 22 11 10 17 26 23 31 29 20 13 12 13 14 18 20 24 17 27
196 219 230 236 206 200 193 218 246 259 306 188 292 294 251 286 287 295 308 322 351 349 352 42 79 21 11 13 15 6 25 21 1 1 0 4 8 1 1 22 19 27 27 14
203 205 227 221 181 217 247 208 228 221 49 293 320 266 232 275 278 269 347 318 334 329 342 23 83 328 2 0 18 20 352 351 346 353 352 357 19 15 18 35 15 13 9 359
211 192 234 212 208 205 250 201 213 234 207 290 270 175 260 289 277 265 321 325 319 302 315 317 317 312 329 331 354 3 10 356 347 347 346 350 360 9 12 5 339 334 343 347
202 198 228 209 213 222 202 214 231 308 342 250 237 207 233 170 325 281 326 322 306 285 294 296 292 289 304 307 324 340 360 -0 355 349 341 337 338 340 346 343 343 330 326 323
204 207 219 197 218 231 209 191 287 259 248 246 269 259 245 254 272 303 331 351 8 318 305 293 293 290 292 293 299 313 336 339 334 332 331 322 320 320 319 320 317 315 309 309
208 199 220 216 191 215 225 202 238 247 249 275 235 250 248 276 273 276 289 298 312 327 319 303 327 314 293 289 297 286 291 310 315 311 316 318 314 309 306 305 307 310 309 308
214 200 227 210 221 203 231 232 213 240 265 248 275 259 301 286 280 298 288 289 297 305 333 267 311 315 345 293 286 266 275 287 305 304 305 311 309 306 301 299 300 301 300 298
212 205 222 206 214 211 219 204 221 246 242 234 247 238 272 271 283 289 282 285 296 291 295 303 297 289 300 297 293 279 277 291 297 292 296 300 300 297 296 295 295 297 298 299
192 193 201 211 222 206 214 226 214 240 213 240 266 224 252 14 300 294 290 289 290 289 285 285 285 306 292 286 282 275 283 293 297 295 295 296 293 288 285 289 295 300 300 299
169 186 206 232 212 209 228 230 214 258 252 231 254 280 289 284 275 291 292 289 289 290 290 288 297 298 287 283 277 276 292 299 294 294 292 296 291 285 288 291 293 295 298 297
164 175 193 191 213 218 192 205 193 241 267 316 325 268 273 294 293 289 285 283 280 282 286 285 293 285 282 278 273 267 282 297 299 296 293 290 287 288 286 288 291 295 295 294
165 163 201 208 203 212 191 197 210 215 258 289 263 226 264 279 286 286 285 284 282 276 279 278 278 281 282 274 274 282 288 293 297 297 290 286 289 290 290 291 295 296 297 293
159 174 228 219 196 200 205 180 221 218 234 233 259 290 278 291 294 295 293 289 284 280 276 273 277 278 273 273 281 295 295 295 295 294 290 289 289 290 291 293 294 293 294 294
168 190 208 200 210 204 235 230 222 247 254 266 264 275 279 288 291 295 294 294 293 292 285 283 281 284 292 287 287 290 290 291 293 291 290 290 291 290 291 291 293 291 290 290
175 208 206 211 224 225 233 254 247 235 274 264 281 285 295 298 300 296 299 298 295 291 285 283 282 280 281 283 283 284 287 289 289 289 290 290 290 290 291 291 289 283 280 279
184 191 201 204 219 222 231 240 255 269 280 286 281 296 295 299 301 298 298 297 292 288 284 281 280 280 282 285 288 290 288 288 289 290 289 289 289 291 293 296 296 294 286 278
204 205 207 235 244 231 245 249 257 269 290 283 287 301 303 301 299 294 298 292 292 291 289 288 288 288 290 289 288 288 288 288 287 287 288 289 292 293 295 297 294 292 290 288
205 213 214 224 225 225 234 241 256 284 299 285 297 300 298 297 297 300 288 291 293 294 292 291 291 290 290 289 289 289 288 288 289 291 294 295 295 294 298 295 290 290 291 290
199 204 206 236 219 250 250 259 265 292 272 291 296 298 295 295 293 296 295 295 296 296 295 293 292 292 291 290 290 292 293 294 296 297 297 295 297 295 292 293 292 291 293 294
201 203 217 233 230 230 263 271 279 286 286 289 292 292 293 293 292 291 294 296 297 296 295 294 293 294 295 296 297 297 297 299 298 297 297 297 298 297 297 294 292 291 290 288
199 206 221 217 206 245 258 280 285 286 287 289 290 289 290 294 295 295 296 296 298 298 298 297 297 299 299 300 299 300 300 299 299 300 300 300 299 297 297 296 296 293 292 291
218 221 232 241 251 257 267 278 281 284 286 287 288 287 292 296 298 298 298 296 298 298 299 300 301 302 301 301 301 300 299 300 302 302 300 299 300 301 299 298 297 297 296 294
220 229 234 239 256 264 271 277 282 286 288 289 288 289 293 296 297 299 299 297 298 299 301 303 303 302 302 302 302 302 304 304 302 301 301 301 301 299 299 299 299 299 298 296
230 240 250 253 265 265 272 279 284 286 287 289 291 293 295 295 299 299 297 297 300 301 303 303 303 304 305 304 305 305 305 303 302 301 301 301 300 300 300 299 298 297 297 297
Height
5921 5924 5933 5939 5940 5936 5939 5942 5942 5939 5936 5935 5937 5937 5930 5930 5927 5923 5921 5924 5923 5922 5922 5917 5914 5917 5915 5913 5910 5906 5904 5903 5900 5899 5899 5898 5897 5896 5894 5895 5894 5892 5890 5888
5920 5923 5932 5930 5931 5934 5939 5942 5941 5935 5934 5935 5936 5937 5937 5931 5929 5926 5923 5923 5925 5923 5922 5917 5915 5917 5916 5915 5912 5909 5906 5905 5903 5902 5900 5900 5898 5897 5895 5895 5894 5893 5892 5890
5918 5926 5926 5927 5932 5934 5938 5942 5939 5936 5934 5936 5936 5935 5932 5931 5929 5927 5926 5923 5923 5925 5923 5921 5917 5918 5917 5915 5912 5909 5907 5906 5904 5902 5900 5899 5898 5896 5894 5893 5894 5894 5893 5891
5915 5925 5923 5926 5931 5935 5936 5936 5936 5936 5937 5935 5936 5937 5933 5928 5926 5926 5925 5924 5924 5925 5923 5922 5920 5917 5917 5916 5913 5910 5907 5906 5905 5902 5899 5898 5897 5895 5894 5894 5893 5892 5892 5891
5914 5918 5919 5925 5930 5930 5931 5931 5934 5934 5935 5939 5937 5938 5931 5927 5921 5923 5923 5923 5924 5923 5922 5920 5919 5916 5915 5915 5912 5910 5908 5907 5905 5902 5900 5898 5896 5894 5895 5894 5892 5892 5891 5890
5910 5915 5917 5922 5926 5925 5927 5930 5931 5932 5934 5937 5937 5936 5922 5909 5916 5922 5922 5921 5921 5921 5921 5919 5917 5916 5914 5913 5910 5908 5906 5905 5904 5902 5899 5898 5896 5895 5895 5894 5893 5891 5890 5889
5902 5912 5914 5918 5918 5922 5925 5930 5934 5935 5933 5935 5930 5934 5928 5924 5923 5921 5922 5921 5920 5920 5918 5918 5917 5915 5915 5913 5910 5908 5905 5904 5903 5901 5899 5898 5896 5894 5893 5891 5891 5889 5889 5887
5899 5906 5907 5910 5916 5925 5924 5930 5931 5928 5933 5934 5932 5933 5920 5917 5920 5922 5921 5920 5919 5918 5917 5916 5916 5913 5910 5910 5909 5908 5904 5903 5901 5899 5897 5895 5893 5892 5890 5889 5888 5886 5885 5883
5900 5907 5907 5911 5915 5918 5921 5925 5929 5929 5932 5931 5928 5924 5914 5915 5917 5919 5918 5917 5916 5915 5914 5913 5913 5911 5909 5909 5906 5904 5902 5900 5898 5895 5893 5891 5889 5887 5886 5884 5883 5881 5881 5880
5901 5904 5907 5909 5911 5914 5917 5919 5927 5927 5928 5929 5928 5926 5919 5912 5912 5914 5915 5915 5914 5913 5912 5910 5909 5908 5907 5904 5902 5899 5897 5896 5893 5891 5888 5887 5885 5882 5881 5880 5878 5876 5873 5872
5896 5903 5906 5908 5905 5911 5915 5916 5920 5924 5922 5925 5923 5914 5911 5893 5909 5911 5911 5911 5910 5909 5908 5907 5906 5905 5902 5900 5897 5895 5893 5891 5887 5884 5882 5881 5879 5877 5876 5873 5871 5869 5867 5864
5890 5900 5898 5902 5904 5909 5909 5917 5919 5922 5920 5920 5914 5907 5910 5911 5910 5907 5908 5908 5906 5905 5903 5902 5901 5899 5897 5894 5891 5889 5887 5885 5881 5879 5877 5873 5871 5870 5868 5866 5864 5862 5859 5857
5886 5895 5899 5902 5904 5905 5907 5912 5917 5913 5911 5910 5913 5909 5905 5906 5905 5906 5903 5902 5903 5901 5897 5895 5895 5893 5890 5888 5883 5882 5880 5878 5875 5872 5870 5867 5865 5863 5861 5859 5858 5855 5853 5849
5883 5894 5898 5898 5899 5903 5906 5907 5910 5913 5916 5912 5905 5880 5901 5902 5903 5901 5898 5895 5896 5895 5888 5890 5887 5885 5882 5878 5876 5875 5873 5871 5868 5865 5862 5860 5857 5855 5853 5850 5848 5845 5842 5839
5877 5888 5891 5891 5893 5896 5894 5902 5906 5907 5907 5907 5906 5903 5897 5899 5895 5895 5892 5889 5888 5885 5884 5882 5881 5878 5873 5870 5867 5868 5865 5862 5859 5857 5855 5852 5850 5848 5845 5841 5838 5835 5832 5829
5876 5885 5888 5891 5891 5897 5899 5900 5900 5900 5900 5900 5900 5898 5895 5895 5892 5889 5887 5884 5881 5879 5878 5876 5873 5869 5865 5864 5862 5860 5856 5853 5852 5849 5846 5844 5842 5838 5835 5831 5829 5825 5821 5819
5876 5882 5885 5890 5892 5894 5897 5897 5895 5895 5894 5895 5895 5892 5889 5888 5886 5883 5881 5879 5876 5874 5872 5869 5866 5864 5861 5857 5854 5852 5849 5846 5843 5840 5838 5835 5832 5829 5826 5823 5819 5816 5813 5810
5873 5879 5883 5888 5888 5890 5888 5889 5889 5890 5889 5889 5888 5887 5884 5882 5879 5877 5875 5873 5870 5868 5865 5863 5860 5856 5853 5850 5847 5844 5841 5838 5835 5832 5829 5826 5823 5819 5816 5812 5808 5803 5800 5798
5873 5878 5882 5881 5875 5884 5883 5882 5883 5885 5884 5881 5881 5880 5878 5875 5873 5870 5869 5866 5864 5862 5858 5855 5852 5848 5846 5842 5839 5836 5833 5830 5827 5824 5820 5817 5813 5810 5806 5802 5797 5793 5789 5786
5872 5876 5878 5880 5879 5882 5872 5871 5876 5879 5880 5873 5874 5873 5871 5870 5867 5863 5863 5860 5857 5854 5851 5848 5844 5840 5837 5835 5831 5827 5825 5821 5817 5814 5810 5806 5803 5799 5795 5791 5787 5783 5779 5776
5865 5870 5871 5872 5876 5870 5862 5867 5870 5875 5874 5871 5869 5867 5865 5863 5861 5857 5854 5852 5849 5846 5843 5839 5836 5832 5829 5826 5823 5819 5815 5812 5808 5804 5800 5796 5793 5790 5786 5781 5777 5773 5769 5765
5862 5866 5867 5871 5863 5861 5862 5863 5868 5868 5866 5865 5863 5861 5858 5856 5853 5850 5847 5844 5842 5839 5835 5832 5828 5824 5821 5818 5814 5810 5806 5802 5798 5794 5790 5786 5782 5778 5774 5770 5766 5762 5759 5755
5858 5857 5857 5859 5849 5857 5860 5860 5861 5860 5859 5858 5856 5854 5851 5849 5846 5843 5840 5837 5835 5831 5827 5823 5819 5816 5813 5809 5805 5801 5797 5793 5789 5785 5781 5776 5772 5767 5762 5758 5754 5750 5747 5743
5848 5851 5853 5851 5853 5855 5855 5855 5854 5854 5853 5851 5849 5847 5845 5842 5839 5835 5833 5830 5827 5823 5819 5815 5811 5808 5804 5801 5797 5793 5789 5785 5780 5776 5772 5767 5762 5757 5752 5747 5745 5740 5736 5732
5840 5845 5847 5848 5849 5850 5849 5848 5847 5846 5845 5843 5842 5839 5837 5834 5831 5827 5825 5822 5818 5815 5811 5807 5803 5800 5796 5792 5788 5784 5780 5776 5771 5767 5762 5757 5752 5748 5743 5737 5733 5729 5724 5720
5835 5837 5842 5841 5842 5842 5842 5841 5840 5839 5837 5836 5834 5831 5828 5826 5822 5819 5816 5814 5811 5807 5803 5799 5796 5792 5788 5783 5779 5775 5771 5767 5762 5758 5753 5748 5743 5737 5733 5728 5722 5717 5713 5710